Grand Canyon, AZ

1:10 PM MST on April 27, 2017 (GMT -0700)
Grand Canyon National Park

Weather History for KGCN - January, 2012

Change the Weather History Date:

Tuesday, January 17, 2012

  Actual Average Record
Temperature  
Mean Temperature 30 °F -  
Max Temperature 42 °F 44 °F 68 °F (2003)
Min Temperature 18 °F 16 °F -5 °F (1997)
Degree Days  
Heating Degree Days 34    
Moisture  
Dew Point 25 °F    
Average Humidity 87    
Maximum Humidity 100    
Minimum Humidity 41    
Precipitation  
Precipitation 0.00 in - - ()
Sea Level Pressure  
Sea Level Pressure 30.19 in    
Wind  
Wind Speed 6 mph (SW)    
Max Wind Speed 14 mph    
Max Gust Speed 17 mph    
Visibility 6 miles    
Events Fog    
Averages and records for this station are not official NWS values.
T = Trace of Precipitation, MM = Missing Value Source: NWS Daily Summary

Daily Weather History Graph

Daily Weather History Graph

Search for Another Location

Airport or City:

Trip Planner

Search our weather history database for the weather conditions in past years. The results will help you decide how hot, cold, wet, or windy it might be!

Date:

Astronomy

Jan. 17, 2012 Rise Set
Actual Time 7:37 AM MST 5:39 PM MST
Civil Twilight 7:10 AM MST 6:07 PM MST
Nautical Twilight 6:38 AM MST 6:38 PM MST
Astronomical Twilight 6:07 AM MST 7:09 PM MST
Moon 2:03 AM MST (1/17) 12:35 PM MST (1/17)
Length of Visible Light 10h 57m
Length of Day
10h 01m
Waning Crescent, 34% of the Moon is Illuminated
Jan 17
Waning Crescent
Jan 23
New
Jan 30
First Quarter
Feb 7
Full
Feb 14
Last Quarter

Hourly Weather History & Observations

Time (MST) Temp. Windchill Dew Point Humidity Pressure Visibility Wind Dir Wind Speed Gust Speed Precip Events Conditions
12:54 AM 27.0 °F 23.0 °F 24.1 °F 89% 30.10 in 10.0 mi SW 3.5 mph - N/A   Mostly Cloudy
1:04 AM 26.6 °F 20.0 °F 24.8 °F 93% 30.10 in 10.0 mi SW 5.8 mph - N/A   Overcast
1:16 AM 28.4 °F 23.3 °F 24.8 °F 86% 30.10 in 10.0 mi SW 4.6 mph - N/A   Mostly Cloudy
1:54 AM 25.0 °F - 23.0 °F 92% 30.10 in 10.0 mi Calm Calm - N/A   Scattered Clouds
2:01 AM 24.8 °F - 21.2 °F 86% 30.11 in 10.0 mi Calm Calm - N/A   Mostly Cloudy
2:04 AM 24.8 °F - 21.2 °F 86% 30.11 in 10.0 mi Calm Calm - N/A   Mostly Cloudy
2:19 AM 26.6 °F 20.0 °F 24.8 °F 93% 30.11 in 10.0 mi SW 5.8 mph - N/A   Overcast
2:54 AM 28.9 °F 21.1 °F 28.0 °F 96% 30.09 in 8.0 mi WSW 8.1 mph - N/A   Overcast
3:13 AM 28.4 °F 19.1 °F 28.4 °F 100% 30.12 in 1.8 mi WSW 10.4 mph - N/A   Overcast
3:22 AM 28.4 °F 19.7 °F 28.4 °F 100% 30.12 in 1.0 mi SW 9.2 mph - N/A   Mist
3:37 AM 28.4 °F 19.7 °F 28.4 °F 100% 30.12 in 0.8 mi WSW 9.2 mph - N/A   Mist
3:54 AM 30.0 °F 22.4 °F 28.9 °F 96% 30.09 in 0.5 mi SW 8.1 mph - N/A Fog Light Freezing Fog
4:43 AM 30.2 °F 21.3 °F 28.4 °F 93% 30.13 in 0.2 mi SW 10.4 mph 17.3 mph N/A Fog Light Freezing Fog
4:52 AM 30.2 °F 21.9 °F 28.4 °F 93% 30.13 in 0.5 mi SW 9.2 mph - N/A Fog Light Freezing Fog
4:54 AM 30.0 °F 22.4 °F 28.9 °F 96% 30.11 in 0.8 mi SW 8.1 mph - N/A   Mist
5:25 AM 28.4 °F 20.4 °F 28.4 °F 100% 30.14 in 0.2 mi WSW 8.1 mph - N/A Fog Light Freezing Fog
5:54 AM 28.9 °F 21.1 °F 28.0 °F 96% 30.14 in 0.2 mi SW 8.1 mph - N/A Fog Light Freezing Fog
6:39 AM 28.4 °F 20.4 °F 26.6 °F 93% 30.16 in 0.8 mi SW 8.1 mph - N/A   Mist
6:46 AM 28.4 °F 22.2 °F 26.6 °F 93% 30.16 in 1.2 mi SW 5.8 mph - N/A   Overcast
6:54 AM 28.0 °F 20.8 °F 27.0 °F 96% 30.17 in 1.0 mi SW 6.9 mph - N/A   Mist
7:08 AM 28.4 °F 21.2 °F 26.6 °F 93% 30.17 in 0.5 mi SW 6.9 mph - N/A Fog Light Freezing Fog
7:54 AM 28.9 °F 22.8 °F 28.0 °F 96% 30.19 in 0.5 mi SW 5.8 mph - N/A Fog Light Freezing Fog
8:02 AM 28.4 °F 23.3 °F 28.4 °F 100% 30.19 in 0.2 mi SW 4.6 mph - N/A Fog Light Freezing Fog
8:21 AM 28.4 °F 23.3 °F 28.4 °F 100% 30.20 in 1.0 mi SW 4.6 mph - N/A   Mist
8:45 AM 28.4 °F 22.2 °F 28.4 °F 100% 30.21 in 2.0 mi SW 5.8 mph - N/A   Overcast
8:54 AM 28.9 °F 23.9 °F 28.9 °F 100% 30.23 in 1.0 mi WSW 4.6 mph - N/A   Overcast
9:01 AM 28.4 °F 20.4 °F 28.4 °F 100% 30.22 in 1.0 mi SW 8.1 mph - N/A   Overcast
9:36 AM 30.2 °F 23.4 °F 28.4 °F 93% 30.24 in 2.0 mi SW 6.9 mph - N/A   Overcast
9:43 AM 30.2 °F 24.3 °F 28.4 °F 93% 30.24 in 1.0 mi SSW 5.8 mph - N/A   Overcast
9:54 AM 30.0 °F 25.2 °F 28.9 °F 96% 30.26 in 4.0 mi SW 4.6 mph - N/A   Overcast
10:25 AM 30.2 °F 23.4 °F 28.4 °F 93% 30.26 in 10.0 mi SSW 6.9 mph - N/A   Overcast
10:42 AM 30.2 °F 23.4 °F 28.4 °F 93% 30.26 in 10.0 mi SSW 6.9 mph - N/A   Overcast
10:50 AM 30.2 °F 21.9 °F 28.4 °F 93% 30.26 in 10.0 mi SW 9.2 mph - N/A   Overcast
10:54 AM 30.0 °F 25.2 °F 28.0 °F 92% 30.28 in 10.0 mi SW 4.6 mph - N/A   Overcast
11:17 AM 30.2 °F 25.4 °F 26.6 °F 86% 30.26 in 10.0 mi SW 4.6 mph - N/A   Overcast
11:54 AM 30.9 °F 23.5 °F 25.0 °F 79% 30.27 in 10.0 mi SSW 8.1 mph - N/A   Scattered Clouds
12:54 PM 37.0 °F 31.6 °F 23.0 °F 57% 30.21 in 10.0 mi SW 6.9 mph - N/A   Clear
1:54 PM 39.9 °F 34.5 °F 19.9 °F 45% 30.17 in 10.0 mi SW 8.1 mph - N/A   Clear
2:54 PM 41.0 °F 34.3 °F 23.0 °F 49% 30.15 in 10.0 mi WSW 11.5 mph - N/A   Clear
3:54 PM 42.1 °F 35.2 °F 19.9 °F 41% 30.15 in 10.0 mi SW 12.7 mph - N/A   Clear
4:54 PM 41.0 °F 33.5 °F 23.0 °F 49% 30.14 in 10.0 mi SW 13.8 mph - N/A   Clear
5:54 PM 35.1 °F 31.0 °F 24.1 °F 64% 30.20 in 10.0 mi SW 4.6 mph - N/A   Clear
6:54 PM 30.9 °F 25.2 °F 23.0 °F 72% 30.22 in 10.0 mi SW 5.8 mph - N/A   Clear
7:54 PM 28.9 °F - 19.9 °F 69% 30.26 in 10.0 mi Calm Calm - N/A   Clear
8:54 PM 21.9 °F - 18.0 °F 85% 30.32 in 10.0 mi Calm Calm - N/A   Clear
9:54 PM 21.0 °F - 17.1 °F 85% 30.33 in 10.0 mi Calm Calm - N/A   Clear
10:54 PM 19.9 °F - 16.0 °F 85% 30.34 in 10.0 mi Calm Calm - N/A   Clear
11:54 PM 18.0 °F - 15.1 °F 88% 30.35 in 10.0 mi Calm Calm - N/A   Clear